Location: Unspecified
(49.3147°N, 0.0000°E)
Time: 01:05:01
(UTC+00:00)

CSL-04 DEB - Visible Passes

Search period start: 05 April 2026 00:00
Search period end: 15 April 2026 00:00
Orbit: 635 x 782 km, 98.6° (Epoch: 29 March)

Date Brightness Start Highest point End Pass type
(mag) Time Alt. Az. Time Alt. Az. Time Alt. Az.
5 Apr ? 21:13:12 14° NE 21:13:12 14° NE 21:15:33 10° NNE visible
5 Apr ? 22:52:11 37° N 22:52:11 37° N 22:55:00 10° NNW visible
6 Apr ? 21:57:58 27° NE 21:57:58 27° NE 22:01:03 10° N visible
6 Apr ? 23:36:57 25° NW 23:36:57 25° NW 23:39:08 10° NNW visible
7 Apr ? 21:03:45 12° ENE 21:04:06 12° NE 21:05:42 10° NNE visible
7 Apr ? 22:42:44 40° N 22:42:44 40° N 22:45:45 10° N visible
8 Apr ? 00:21:43 12° WNW 00:21:43 12° WNW 00:22:22 10° NW visible
8 Apr ? 21:48:29 24° NE 21:48:29 24° NE 21:51:37 10° N visible
8 Apr ? 23:27:28 29° NW 23:27:28 29° NW 23:29:58 10° NNW visible
9 Apr ? 22:33:11 41° NNE 22:33:11 41° NNE 22:36:24 10° N visible
10 Apr ? 00:12:10 15° WNW 00:12:10 15° WNW 00:13:25 10° NW visible
10 Apr ? 21:38:54 21° NE 21:38:54 21° NE 21:42:03 10° NNE visible
10 Apr ? 23:17:53 35° NW 23:17:53 35° NW 23:20:41 10° NNW visible
11 Apr ? 22:23:34 40° NNE 22:23:34 40° NNE 22:26:57 10° N visible
12 Apr ? 00:02:33 18° WNW 00:02:33 18° WNW 00:04:18 10° NW visible
12 Apr ? 21:29:14 17° ENE 21:29:23 17° ENE 21:32:20 10° NNE visible
12 Apr ? 23:08:13 42° NNW 23:08:13 42° NNW 23:11:17 10° NNW visible
13 Apr ? 22:13:52 36° NE 22:13:52 36° NE 22:17:23 10° N visible
13 Apr ? 23:52:50 22° WNW 23:52:50 22° WNW 23:55:02 10° NW visible
14 Apr ? 21:19:29 14° ENE 21:20:02 14° NE 21:22:27 10° NNE visible
14 Apr ? 22:58:28 49° NNW 22:58:28 49° NNW 23:01:47 10° NNW visible
